User: anonymous   Login
Location: Unspecified
(29.9680°N, 0.0000°E)
Time: 22:22:40
(UTC+00:00)
Language:

Transit 2A - Orbit

View from above orbital plane
View from above orbital plane
View from above satellite
View from above satellite

Ground track
Ground track

The orbit data is extracted from the following two-line orbital elements,

1    45U 60007A   19171.19806906 -.00000041  00000-0  16725-4 0  9991
2    45  66.6946 258.1328 0260733 221.2988 136.8137 14.33641137 70638
Epoch (UTC): 20 June 2019 04:45:13
Eccentricity: 0.0260733
inclination: 66.6946°
perigee height: 593 km
apogee height: 966 km
right ascension of ascending node: 258.1328°
argument of perigee: 221.2988°
revolutions per day: 14.33641137
mean anomaly at epoch: 136.8137°
orbit number at epoch: 7063

The dashed part of the orbit path shows where the satellite is in the earth's shadow,  

DLR